Terminal Aerodrome Forecast
Issued by NWS North Platte, NE

Home | Current Version | Previous Version | Text Only | Print | Product List | Glossary On
Versions: 1 2 3 4 5 6 7 8 9 10 11 12 13 14 15 16 17 18 19
000
FTUS43 KLBF 162207 AAB
TAFLBF
TAF AMD
KLBF 162207Z 1622/1718 35011KT P6SM SCT025 BKN070
     FM170000 32004KT P6SM SCT250
     FM171500 29006KT P6SM FEW250=

USA.gov is the U.S. government's official web portal to all federal, state and local government web resources and services.